Regional Weather Roundup
Issued by NWS Charleston, WV

Home | Current Version | Previous Version | Text Only | Print | Product List | Glossary Off
Versions: 1 2 3 4 5 6 7 8 9 10 11 12 13 14 15 16 17 18 19 20 21 22 23 24 25 26 27 28 29 30 31 32 33 34 35 36 37 38 39 40 41 42 43 44 45 46 47 48 49 50

036
ASUS41 KRLX 050910
RWRRLX
West Virginia Regional Weather Roundup
National Weather Service Charleston WV
500 AM EDT THU MAY 05 2016

Note: "fair" indicates few or no clouds below 12,000 feet with no
significant weather and/or obstructions to visibility.

WVZ003-051000-
Northern Panhandle of West Virginia

CITY           SKY/WX    TMP DP  RH WIND       PRES   REMARKS
WHEELING       LGT RAIN  49  47  93 CALM      29.66S FOG
$$

WVZ009-051000-
Northwest West Virginia

CITY           SKY/WX    TMP DP  RH WIND       PRES   REMARKS
PARKERSBURG    CLOUDY    47  45  93 NW7       29.70S
$$

WVZ006-051000-
Western West Virginia

CITY           SKY/WX    TMP DP  RH WIND       PRES   REMARKS
HUNTINGTON     CLOUDY    45  41  86 W5        29.71S
$$

WVZ015-051000-
West Central West Virginia

CITY           SKY/WX    TMP DP  RH WIND       PRES   REMARKS
CHARLESTON     LGT RAIN  47  43  86 W6        29.69R FOG
$$

WVZ022-031-051000-
North Central West Virginia

CITY           SKY/WX    TMP DP  RH WIND       PRES   REMARKS
CLARKSBURG     LGT RAIN  48  47  96 CALM      29.65S
MORGANTOWN     LGT RAIN  50  46  86 CALM      29.66S
$$

WVZ025-035-042-045-051000-
Southern West Virginia

CITY           SKY/WX    TMP DP  RH WIND       PRES   REMARKS
BECKLEY        LGT RAIN  43  41  93 W7        29.65S
LOGAN          NOT AVBL
BLUEFIELD      LGT RAIN  42  39  89 NW8       29.66R
LEWISBURG      CLOUDY    46  45  97 CALM      29.63S
$$

WVZ047-051000-
Northern Mountains of West Virginia

CITY           SKY/WX    TMP DP  RH WIND       PRES   REMARKS
ELKINS         RAIN      47  44  90 CALM      29.65F FOG
$$

WVZ052-051000-
Eastern Panhandle of West Virginia

CITY           SKY/WX    TMP DP  RH WIND       PRES   REMARKS
MARTINSBURG    CLOUDY    50  47  89 NE3       29.66F
PETERSBURG     CLOUDY    53  49  87 CALM      29.64F
$$




USA.gov is the U.S. government's official web portal to all federal, state and local government web resources and services.